Knox, IN

10:49 PM CST on February 12, 2016 (GMT -0600)
Starke County

Weather History for KOXI - April, 2013

Change the Weather History Date:

Tuesday, April 2, 2013

  Actual Average (KVPZ) Record (KVPZ)
Temperature  
Mean Temperature 32 °F 44 °F  
Max Temperature 61 °F 54 °F 80 °F (2003)
Min Temperature 21 °F 34 °F 23 °F (2013)
Degree Days  
Heating Degree Days 32 21  
Month to date heating degree days 42  
Since 1 July heating degree days 5619  
Cooling Degree Days 0 0  
Month to date cooling degree days 0  
Year to date cooling degree days 0  
Moisture  
Dew Point 12 °F    
Average Humidity 46    
Maximum Humidity 79    
Minimum Humidity 22    
Precipitation  
Precipitation 0.00 in 0.09 in 0.51 in (2002)
Month to date precipitation 0.18  
Year to date precipitation 5.83  
Sea Level Pressure  
Sea Level Pressure 30.22 in    
Wind  
Wind Speed 7 mph (NW)    
Max Wind Speed 18 mph    
Max Gust Speed 24 mph    
Visibility 10 miles    
Events      
T = Trace of Precipitation, MM = Missing Value Source: NWS Daily Summary

Daily Weather History Graph

Daily Weather History Graph

Search for Another Location

Airport or City:

Trip Planner

Search our weather history database for the weather conditions in past years. The results will help you decide how hot, cold, wet, or windy it might be!

Date:

Astronomy

Apr. 02, 2013 Rise Set
Actual Time 6:27 AM CDT 7:13 PM CDT
Civil Twilight 5:59 AM CDT 7:41 PM CDT
Nautical Twilight 5:26 AM CDT 8:14 PM CDT
Astronomical Twilight 4:52 AM CDT 8:48 PM CDT
Moon 1:20 AM CDT (4/2) 11:15 AM CDT (4/2)
Length of Visible Light 13h 41m
Length of Day
12h 45m
Waning Gibbous, 55% of the Moon is Illuminated
Apr 2
Waning Gibbous
Apr 2
Last Quarter
Apr 10
New
Apr 18
First Quarter
Apr 25
Full

Hourly Weather History & Observations

Time (CDT) Temp. Windchill Dew Point Humidity Pressure Visibility Wind Dir Wind Speed Gust Speed Precip Events Conditions
12:15 AM 25.7 °F 20.1 °F 19.0 °F 76% 30.15 in 10.0 mi West 4.6 mph - N/A   Scattered Clouds
12:35 AM 25.0 °F 19.3 °F 18.0 °F 75% 30.15 in 10.0 mi WNW 4.6 mph - N/A   Clear
1:15 AM 27.1 °F 20.7 °F 17.1 °F 66% 30.16 in 10.0 mi WNW 5.8 mph - N/A   Scattered Clouds
1:35 AM 27.0 °F 20.5 °F 16.9 °F 66% 30.16 in 10.0 mi West 5.8 mph - N/A   Clear
1:55 AM 26.6 °F 19.1 °F 17.1 °F 67% 30.16 in 10.0 mi West 6.9 mph - N/A   Clear
2:15 AM 26.6 °F 20.0 °F 16.7 °F 66% 30.17 in 10.0 mi West 5.8 mph - N/A   Clear
2:35 AM 26.4 °F 19.8 °F 16.0 °F 65% 30.16 in 10.0 mi West 5.8 mph - N/A   Clear
2:55 AM 26.8 °F 19.3 °F 15.8 °F 63% 30.16 in 10.0 mi WNW 6.9 mph - N/A   Clear
3:15 AM 26.8 °F 19.3 °F 15.3 °F 62% 30.16 in 10.0 mi West 6.9 mph - N/A   Clear
3:35 AM 26.1 °F 19.4 °F 14.9 °F 63% 30.16 in 10.0 mi West 5.8 mph - N/A   Clear
3:55 AM 24.8 °F 17.9 °F 14.7 °F 66% 30.16 in 10.0 mi West 5.8 mph - N/A   Clear
4:15 AM 24.4 °F 17.5 °F 14.9 °F 67% 30.17 in 10.0 mi WNW 5.8 mph - N/A   Clear
4:35 AM 25.3 °F 17.6 °F 15.3 °F 66% 30.18 in 10.0 mi WNW 6.9 mph - N/A   Clear
4:55 AM 25.3 °F 17.6 °F 15.4 °F 66% 30.18 in 10.0 mi West 6.9 mph - N/A   Clear
5:15 AM 25.2 °F 17.3 °F 15.6 °F 67% 30.19 in 10.0 mi WNW 6.9 mph - N/A   Clear
5:35 AM 24.8 °F 16.9 °F 15.6 °F 68% 30.20 in 10.0 mi West 6.9 mph - N/A   Clear
6:15 AM 24.1 °F 16.0 °F 15.3 °F 69% 30.20 in 10.0 mi WSW 6.9 mph - N/A   Clear
6:35 AM 21.6 °F 13.0 °F 15.1 °F 76% 30.21 in 10.0 mi WSW 6.9 mph - N/A   Clear
6:55 AM 21.2 °F 12.6 °F 15.6 °F 79% 30.22 in 10.0 mi WSW 6.9 mph - N/A   Clear
7:15 AM 22.3 °F 13.9 °F 16.0 °F 77% 30.22 in 10.0 mi West 6.9 mph - N/A   Clear
7:35 AM 25.2 °F 16.5 °F 15.8 °F 68% 30.23 in 10.0 mi West 8.1 mph - N/A   Clear
7:55 AM 27.0 °F 19.5 °F 16.0 °F 63% 30.24 in 10.0 mi West 6.9 mph - N/A   Clear
8:15 AM 28.2 °F 19.5 °F 16.3 °F 61% 30.24 in 10.0 mi West 9.2 mph - N/A   Clear
8:35 AM 29.8 °F 22.2 °F 17.2 °F 59% 30.25 in 10.0 mi WNW 8.1 mph - N/A   Clear
8:55 AM 31.6 °F 23.1 °F 17.6 °F 56% 30.25 in 10.0 mi WNW 10.4 mph - N/A   Clear
9:15 AM 32.4 °F 25.3 °F 17.4 °F 54% 30.25 in 10.0 mi WNW 8.1 mph - N/A   Clear
9:35 AM 33.4 °F 25.4 °F 16.9 °F 51% 30.26 in 10.0 mi West 10.4 mph - N/A   Clear
9:55 AM 34.3 °F 27.7 °F 15.6 °F 46% 30.26 in 10.0 mi West 8.1 mph - N/A   Clear
10:15 AM 35.1 °F 25.9 °F 13.3 °F 41% 30.26 in 10.0 mi West 13.8 mph 17.3 mph N/A   Clear
10:35 AM 35.8 °F 28.3 °F 9.7 °F 34% 30.26 in 10.0 mi NW 10.4 mph 16.1 mph N/A   Clear
10:55 AM 36.3 °F 30.1 °F 7.7 °F 30% 30.25 in 10.0 mi West 8.1 mph 11.5 mph N/A   Clear
11:15 AM 37.2 °F 28.3 °F 8.6 °F 31% 30.26 in 10.0 mi NW 15.0 mph 19.6 mph N/A   Clear
11:35 AM 37.6 °F 32.3 °F 9.1 °F 31% 30.25 in 10.0 mi WNW 6.9 mph 17.3 mph N/A   Clear
11:55 AM 38.1 °F 30.7 °F 9.7 °F 31% 30.25 in 10.0 mi NW 11.5 mph 16.1 mph N/A   Clear
12:15 PM 39.7 °F 33.7 °F 8.1 °F 27% 30.24 in 10.0 mi WNW 9.2 mph 17.3 mph N/A   Clear
12:35 PM 39.7 °F 31.9 °F 8.6 °F 28% 30.23 in 10.0 mi WNW 13.8 mph 20.7 mph N/A   Clear
12:55 PM 40.5 °F 33.6 °F 9.0 °F 27% 30.22 in 10.0 mi North 11.5 mph - N/A   Clear
1:15 PM 41.4 °F 33.3 °F 8.6 °F 26% 30.22 in 10.0 mi WNW 16.1 mph 20.7 mph N/A   Clear
1:35 PM 42.1 °F 36.6 °F 7.0 °F 24% 30.22 in 10.0 mi NW 9.2 mph 18.4 mph N/A   Clear
1:55 PM 42.4 °F 37.5 °F 5.7 °F 22% 30.21 in 10.0 mi North 8.1 mph 18.4 mph N/A   Clear
2:15 PM 42.6 °F 35.9 °F 6.8 °F 23% 30.20 in 10.0 mi NNW 12.7 mph 19.6 mph N/A   Clear
2:35 PM 43.2 °F 36.6 °F 6.4 °F 22% 30.20 in 10.0 mi NW 12.7 mph 16.1 mph N/A   Scattered Clouds
2:55 PM 43.5 °F 36.7 °F 6.4 °F 22% 30.20 in 10.0 mi NNW 13.8 mph 19.6 mph N/A   Scattered Clouds
3:15 PM 43.2 °F 37.4 °F 5.9 °F 22% 30.19 in 10.0 mi North 10.4 mph - N/A   Clear
3:35 PM 43.5 °F 36.7 °F 6.4 °F 22% 30.19 in 10.0 mi NNW 13.8 mph - N/A   Clear
3:55 PM 43.7 °F 38.6 °F 7.5 °F 23% 30.19 in 10.0 mi West 9.2 mph - N/A   Scattered Clouds
4:15 PM 43.3 °F 37.7 °F 7.9 °F 23% 30.19 in 10.0 mi NW 10.4 mph - N/A   Mostly Cloudy
4:35 PM 44.2 °F 38.8 °F 9.1 °F 24% 30.19 in 10.0 mi WNW 10.4 mph - N/A   Mostly Cloudy
4:55 PM 43.2 °F 37.0 °F 8.2 °F 24% 30.20 in 10.0 mi NNW 11.5 mph 21.9 mph N/A   Scattered Clouds
5:15 PM 41.9 °F 33.4 °F 7.7 °F 25% 30.20 in 10.0 mi North 18.4 mph 21.9 mph N/A   Clear
5:35 PM 42.1 °F 33.6 °F 7.5 °F 24% 30.21 in 10.0 mi NNW 18.4 mph 24.2 mph N/A   Clear
5:55 PM 41.0 °F 32.8 °F 7.3 °F 25% 30.21 in 10.0 mi NNW 16.1 mph 20.7 mph N/A   Clear
6:15 PM 40.3 °F 31.9 °F 8.1 °F 27% 30.22 in 10.0 mi NNW 16.1 mph - N/A   Clear
6:35 PM 39.2 °F 31.6 °F 8.1 °F 28% 30.22 in 10.0 mi North 12.7 mph - N/A   Clear
6:55 PM 37.9 °F 30.0 °F 8.1 °F 29% 30.22 in 10.0 mi NNW 12.7 mph - N/A   Clear
7:15 PM 36.0 °F 29.6 °F 8.4 °F 32% 30.23 in 10.0 mi North 8.1 mph - N/A   Clear
7:35 PM 33.1 °F 26.1 °F 8.6 °F 36% 30.23 in 10.0 mi North 8.1 mph - N/A   Clear
7:55 PM 32.0 °F 24.8 °F 8.6 °F 38% 30.24 in 10.0 mi North 8.1 mph - N/A   Clear
8:15 PM 30.6 °F 24.7 °F 9.1 °F 41% 30.24 in 10.0 mi North 5.8 mph - N/A   Clear
8:35 PM 29.3 °F 25.6 °F 10.0 °F 45% 30.25 in 10.0 mi NNE 3.5 mph - N/A   Clear
8:55 PM 29.7 °F 24.7 °F 10.2 °F 44% 30.26 in 10.0 mi NNE 4.6 mph - N/A   Clear
9:15 PM 30.2 °F 25.4 °F 9.3 °F 42% 30.26 in 10.0 mi NNE 4.6 mph - N/A   Clear
9:35 PM 28.6 °F 24.8 °F 10.4 °F 47% 30.27 in 10.0 mi North 3.5 mph - N/A   Clear
9:55 PM 28.0 °F - 10.8 °F 48% 30.28 in 10.0 mi Calm Calm - N/A   Clear
10:15 PM 27.1 °F - 11.3 °F 51% 30.28 in 10.0 mi Calm Calm - N/A   Clear
10:35 PM 27.0 °F - 11.7 °F 53% 30.28 in 10.0 mi Calm Calm - N/A   Clear
10:55 PM 27.9 °F - 12.2 °F 52% 30.28 in 10.0 mi Calm Calm - N/A   Clear
11:15 PM 27.5 °F - 12.9 °F 54% 30.28 in 10.0 mi Calm Calm - N/A   Clear
11:35 PM 25.5 °F - 14.4 °F 63% 30.29 in 10.0 mi Calm Calm - N/A   Clear